Location: Pensacola
(30.4142°N, 87.2155°W)
Time: 17:43:07
(UTC-05:00)

NANOSAT C BR1 - Pass Details

Date: 13 August 2024
Orbit: 544 x 550 km, 98.1° (Epoch: 12 September)

Event Time Altitude Azimuth Distance (km) Brightness Sun altitude
Rises 04:08:10 0° 31° (NNE) 2,746 ? -25.2°
Reaches altitude 10° 04:10:48 10° 49° (NE) 1,846 ? -24.7°
Maximum altitude 04:13:44 20° 96° (E) 1,335 ? -24.2°
Drops below altitude 10° 04:16:38 10° 144° (SE) 1,834 ? -23.7°
Enters shadow 04:16:53 - 146° (SSE) 1,912 ? -23.7°
